| time (UTC) | temp C | wind direction | speed KPH | gust KPH | rain 1hr cm | rain 24hr cm | rain mn cm | humidity % | barometer mb |
| 20260505124534 | 17 | 190 | 14.5 | 37.0 | 0.00 | 0.00 | 0.00 | 66 | 1007.8 |
| 20260505123031 | 17 | 196 | 14.5 | 25.7 | 0.00 | 0.00 | 0.00 | 66 | 1007.6 |
| 20260505121533 | 17 | 209 | 17.7 | 35.4 | 0.00 | 0.00 | 0.00 | 68 | 1007.7 |
| 20260505120034 | 16 | 173 | 14.5 | 29.0 | 0.00 | 0.00 | 0.00 | 69 | 1007.9 |
| 20260505114522 | 16 | 171 | 12.9 | 24.1 | 0.00 | 0.00 | 0.00 | 71 | 1007.8 |
| 20260505113019 | 16 | 182 | 11.3 | 27.4 | 0.00 | 0.00 | 0.00 | 72 | 1007.8 |
| 20260505111519 | 16 | 232 | 11.3 | 27.4 | 0.00 | 0.00 | 0.00 | 72 | 1007.7 |
| 20260505101601 | 16 | 250 | 14.5 | 30.6 | 0.00 | 0.00 | 0.00 | 68 | 1007.5 |
| 20260505100059 | 16 | 231 | 9.7 | 22.5 | 0.00 | 0.00 | 0.00 | 67 | 1007.2 |
| 20260505094556 | 16 | 168 | 11.3 | 22.5 | 0.00 | 0.00 | 0.00 | 67 | 1007.1 |
| 20260505093059 | 16 | 201 | 9.7 | 22.5 | 0.00 | 0.00 | 0.00 | 67 | 1006.9 |
| 20260505091602 | 16 | 202 | 9.7 | 25.7 | 0.00 | 0.00 | 0.00 | 67 | 1006.7 |
| 20260505090050 | 16 | 190 | 9.7 | 27.4 | 0.00 | 0.00 | 0.00 | 67 | 1006.8 |
| 20260505084549 | 16 | 213 | 9.7 | 25.7 | 0.00 | 0.00 | 0.00 | 67 | 1006.8 |
| 20260505083054 | 16 | 199 | 11.3 | 24.1 | 0.00 | 0.00 | 0.00 | 67 | 1006.8 |
| 20260505081548 | 16 | 232 | 8.0 | 20.9 | 0.00 | 0.00 | 0.00 | 67 | 1006.7 |
| 20260505080046 | 16 | 198 | 9.7 | 17.7 | 0.00 | 0.00 | 0.00 | 67 | 1006.6 |
| 20260505074544 | 16 | 196 | 8.0 | 20.9 | 0.00 | 0.00 | 0.00 | 67 | 1006.4 |
| 20260505073052 | 17 | 222 | 4.8 | 19.3 | 0.00 | 0.00 | 0.00 | 67 | 1006.3 |
| 20260505071554 | 17 | 201 | 9.7 | 22.5 | 0.00 | 0.00 | 0.00 | 66 | 1006.3 |
| 20260505070041 | 17 | 215 | 6.4 | 20.9 | 0.00 | 0.00 | 0.00 | 66 | 1006.4 |
| 20260505064541 | 17 | 204 | 8.0 | 25.7 | 0.00 | 0.00 | 0.00 | 66 | 1006.4 |
| 20260505063038 | 17 | 226 | 8.0 | 22.5 | 0.00 | 0.00 | 0.00 | 67 | 1006.4 |
| 20260505061537 | 17 | 216 | 11.3 | 25.7 | 0.00 | 0.00 | 0.00 | 67 | 1006.5 |
| 20260505060045 | 17 | 227 | 9.7 | 32.2 | 0.00 | 0.00 | 0.00 | 67 | 1006.6 |
| 20260505054534 | 17 | 171 | 9.7 | 25.7 | 0.00 | 0.00 | 0.00 | 66 | 1006.8 |
| 20260505053031 | 17 | 190 | 9.7 | 17.7 | 0.00 | 0.00 | 0.00 | 66 | 1006.8 |
| 20260505051530 | 17 | 252 | 11.3 | 20.9 | 0.00 | 0.00 | 0.00 | 67 | 1006.8 |
| 20260505041525 | 16 | 200 | 9.7 | 17.7 | 0.00 | 0.00 | 0.00 | 69 | 1006.7 |
| 20260505040020 | 16 | 167 | 11.3 | 16.1 | 0.00 | 0.00 | 0.00 | 68 | 1006.5 |
| 20260505034519 | 16 | 184 | 9.7 | 16.1 | 0.00 | 0.00 | 0.00 | 68 | 1006.6 |
| 20260505033019 | 17 | 174 | 8.0 | 16.1 | 0.00 | 0.00 | 0.00 | 68 | 1006.6 |
| 20260505031518 | 17 | 173 | 11.3 | 19.3 | 0.00 | 0.00 | 0.00 | 67 | 1006.6 |
| 20260505030018 | 17 | 173 | 11.3 | 16.1 | 0.00 | 0.00 | 0.00 | 67 | 1006.8 |
| 20260505024518 | 17 | 185 | 9.7 | 16.1 | 0.00 | 0.00 | 0.00 | 67 | 1006.7 |
| 20260505023022 | 17 | 168 | 11.3 | 16.1 | 0.00 | 0.00 | 0.00 | 67 | 1006.7 |
| 20260505021521 | 17 | 183 | 11.3 | 17.7 | 0.00 | 0.00 | 0.00 | 67 | 1006.7 |
| 20260505020017 | 17 | 171 | 14.5 | 19.3 | 0.00 | 0.00 | 0.00 | 66 | 1006.6 |
| 20260505014516 | 17 | 176 | 12.9 | 17.7 | 0.00 | 0.00 | 0.00 | 66 | 1006.7 |
| 20260505013015 | 17 | 176 | 11.3 | 16.1 | 0.00 | 0.00 | 0.00 | 66 | 1006.7 |
| 20260505011613 | 17 | 172 | 9.7 | 12.9 | 0.00 | 0.00 | 0.00 | 66 | 1006.6 |
| 20260505010110 | 17 | 175 | 8.0 | 14.5 | 0.00 | 0.00 | 0.00 | 65 | 1006.6 |
| 20260505004554 | 17 | 184 | 6.4 | 12.9 | 0.00 | 0.00 | 0.00 | 64 | 1006.7 |
| 20260505003057 | 18 | 206 | 4.8 | 19.3 | 0.00 | 0.00 | 0.00 | 64 | 1006.9 |
| 20260505001554 | 18 | 218 | 8.0 | 17.7 | 0.00 | 0.00 | 0.00 | 63 | 1006.9 |
| 20260505000100 | 18 | 205 | 8.0 | 30.6 | 0.00 | 0.00 | 0.00 | 61 | 1006.9 |
| 20260504234552 | 19 | 238 | 6.4 | 19.3 | 0.00 | 0.00 | 0.00 | 61 | 1006.8 |
| 20260504233100 | 19 | 223 | 6.4 | 27.4 | 0.00 | 0.00 | 0.00 | 61 | 1006.7 |
| 20260504231552 | 19 | 271 | 12.9 | 29.0 | 0.00 | 0.00 | 0.00 | 60 | 1006.8 |
| 20260504230059 | 19 | 171 | 9.7 | 24.1 | 0.00 | 0.00 | 0.00 | 60 | 1006.9 |
| 20260504224550 | 20 | 257 | 16.1 | 30.6 | 0.00 | 0.00 | 0.00 | 60 | 1007.1 |
| 20260504223058 | 20 | 234 | 12.9 | 20.9 | 0.00 | 0.00 | 0.00 | 60 | 1007.2 |
| 20260504221550 | 19 | 238 | 12.9 | 33.8 | 0.00 | 0.00 | 0.00 | 60 | 1006.8 |
| 20260504220049 | 20 | 222 | 11.3 | 22.5 | 0.00 | 0.00 | 0.00 | 59 | 1007.3 |
| 20260504214559 | 20 | 264 | 11.3 | 29.0 | 0.00 | 0.00 | 0.00 | 60 | 1007.1 |
| 20260504213056 | 20 | 273 | 17.7 | 38.6 | 0.00 | 0.00 | 0.00 | 58 | 1007.2 |
| 20260504211552 | 20 | 253 | 17.7 | 40.2 | 0.00 | 0.00 | 0.00 | 57 | 1006.9 |
| 20260504210047 | 21 | 233 | 14.5 | 29.0 | 0.00 | 0.00 | 0.00 | 57 | 1006.7 |
| 20260504204545 | 20 | 217 | 6.4 | 30.6 | 0.00 | 0.00 | 0.00 | 58 | 1006.8 |
| 20260504203046 | 20 | 238 | 17.7 | 35.4 | 0.00 | 0.00 | 0.00 | 56 | 1006.9 |
| 20260504201558 | 21 | 236 | 14.5 | 33.8 | 0.00 | 0.00 | 0.00 | 56 | 1007.0 |
| 20260504200045 | 21 | 274 | 11.3 | 20.9 | 0.00 | 0.00 | 0.00 | 60 | 1006.9 |
| 20260504194548 | 20 | 246 | 20.9 | 41.8 | 0.00 | 0.00 | 0.00 | 56 | 1006.9 |
| 20260504193040 | 21 | 202 | 17.7 | 33.8 | 0.00 | 0.00 | 0.00 | 54 | 1007.3 |
| 20260504191545 | 21 | 250 | 17.7 | 30.6 | 0.00 | 0.00 | 0.00 | 57 | 1007.3 |
| 20260504190037 | 20 | 188 | 12.9 | 27.4 | 0.00 | 0.00 | 0.00 | 57 | 1007.4 |
| 20260504184540 | 20 | 219 | 9.7 | 25.7 | 0.00 | 0.00 | 0.00 | 60 | 1007.6 |
| 20260504183032 | 20 | 230 | 11.3 | 30.6 | 0.00 | 0.00 | 0.00 | 59 | 1007.6 |
| 20260504181536 | 20 | 187 | 19.3 | 30.6 | 0.00 | 0.00 | 0.00 | 62 | 1007.6 |
| 20260504180030 | 20 | 229 | 14.5 | 33.8 | 0.00 | 0.00 | 0.00 | 60 | 1008.0 |
| 20260504174525 | 19 | 225 | 12.9 | 43.5 | 0.00 | 0.00 | 0.00 | 61 | 1008.3 |
| 20260504173024 | 18 | 263 | 19.3 | 38.6 | 0.00 | 0.00 | 0.00 | 60 | 1008.3 |
| 20260504171521 | 18 | 242 | 17.7 | 29.0 | 0.00 | 0.00 | 0.00 | 61 | 1008.5 |